Weather History for Gillette, WY

Change the Weather History Date:

Tuesday, February 12, 2013

  Actual Average Record
Temperature  
Mean Temperature 29 °F 27 °F  
Max Temperature 38 °F 37 °F 41 °F (2014)
Min Temperature 19 °F 16 °F 10 °F (2014)
Degree Days  
Heating Degree Days 36 38  
Month to date heating degree days 416 467  
Since 1 July heating degree days 4502 4822  
Cooling Degree Days 0 0  
Month to date cooling degree days 0 0  
Year to date cooling degree days 0 0  
Moisture  
Dew Point 14 °F    
Average Humidity 55    
Maximum Humidity 69    
Minimum Humidity 40    
Precipitation  
Precipitation 0.00 in 0.01 in 0.00 in (2014)
Month to date precipitation 0.07 0.18  
Year to date precipitation 0.48 0.57  
Sea Level Pressure  
Sea Level Pressure 30.06 in    
Wind  
Wind Speed 12 mph (WSW)    
Max Wind Speed 20 mph    
Max Gust Speed 24 mph    
Visibility 10 miles    
Events      
T = Trace of Precipitation, MM = Missing Value Source: NWS Daily Summary

Daily Weather History Graph

Daily Weather History Graph

Search for Another Location

Airport:

Trip Planner

Search our weather history database for the weather conditions in past years. The results will help you decide how hot, cold, wet, or windy it might be!

Date:

Astronomy

Feb. 12, 2013 Rise Set
Actual Time 7:05 AM MST 5:27 PM MST
Civil Twilight 6:35 AM MST 5:57 PM MST
Nautical Twilight 6:01 AM MST 6:31 PM MST
Astronomical Twilight 5:28 AM MST 7:05 PM MST
Moon 7:56 AM MST (2/12) 8:40 PM MST (2/12)
Length of Visible Light 11h 21m
Length of Day
10h 21m
Waxing Crescent, 8% of the Moon is Illuminated
Feb 12
Waxing Crescent
Feb 17
First Quarter
Feb 25
Full
Mar 4
Last Quarter
Mar 11
New

Hourly Weather History & Observations

Time (MST) Temp. Windchill Dew Point Humidity Pressure Visibility Wind Dir Wind Speed Gust Speed Precip Events Conditions
12:53 AM 19.9 °F 9.3 °F 9.0 °F 62% 30.04 in 10.0 mi WSW 9.2 mph - N/A   Scattered Clouds
1:53 AM 19.9 °F 7.3 °F 9.0 °F 62% 30.05 in 10.0 mi West 12.7 mph - N/A   Clear
2:53 AM 19.9 °F 5.7 °F 8.1 °F 60% 30.03 in 10.0 mi WSW 16.1 mph - N/A   Clear
3:53 AM 21.0 °F 8.1 °F 8.1 °F 57% 30.03 in 10.0 mi WSW 13.8 mph - N/A   Clear
4:53 AM 19.9 °F 6.7 °F 8.1 °F 60% 30.05 in 10.0 mi West 13.8 mph - N/A   Clear
5:53 AM 19.0 °F 6.1 °F 8.1 °F 62% 30.11 in 10.0 mi West 12.7 mph - N/A   Clear
6:53 AM 19.9 °F 7.3 °F 8.1 °F 60% 30.12 in 10.0 mi WSW 12.7 mph - N/A   Clear
7:53 AM 24.1 °F 12.0 °F 9.0 °F 53% 30.12 in 10.0 mi WSW 13.8 mph - N/A   Clear
8:53 AM 27.0 °F 15.6 °F 10.9 °F 51% 30.11 in 10.0 mi West 13.8 mph - N/A   Clear
9:53 AM 32.0 °F 23.6 °F 14.0 °F 48% 30.11 in 10.0 mi West 10.4 mph - N/A   Clear
10:53 AM 33.1 °F 23.9 °F 12.9 °F 43% 30.11 in 10.0 mi West 12.7 mph - N/A   Clear
11:53 AM 35.1 °F 25.9 °F 14.0 °F 42% 30.10 in 10.0 mi WNW 13.8 mph - N/A   Clear
12:53 PM 35.1 °F 26.4 °F 14.0 °F 42% 30.07 in 10.0 mi WNW 12.7 mph 20.7 mph N/A   Clear
1:53 PM 37.0 °F 28.9 °F 16.0 °F 42% 30.05 in 10.0 mi West 12.7 mph 20.7 mph N/A   Clear
2:53 PM 37.9 °F 29.2 °F 19.0 °F 47% 30.04 in 10.0 mi WNW 15.0 mph - N/A   Overcast
3:53 PM 37.0 °F 28.1 °F 19.9 °F 50% 30.04 in 10.0 mi WNW 15.0 mph - N/A   Partly Cloudy
4:53 PM 33.1 °F 25.5 °F 19.9 °F 59% 30.04 in 10.0 mi West 9.2 mph - N/A   Clear
5:53 PM 28.9 °F 20.4 °F 19.0 °F 67% 30.06 in 10.0 mi WSW 9.2 mph - N/A   Clear
6:53 PM 30.0 °F 21.1 °F 19.0 °F 64% 30.06 in 10.0 mi WSW 10.4 mph - N/A   Scattered Clouds
7:53 PM 30.9 °F 23.5 °F 19.9 °F 64% 30.04 in 10.0 mi WSW 8.1 mph - N/A   Overcast
8:53 PM 30.9 °F 21.2 °F 19.0 °F 61% 30.03 in 10.0 mi WSW 12.7 mph - N/A   Overcast
9:53 PM 28.9 °F 20.4 °F 19.9 °F 69% 30.00 in 10.0 mi SW 9.2 mph - N/A   Overcast
10:53 PM 28.9 °F 18.2 °F 18.0 °F 64% 29.98 in 10.0 mi SW 13.8 mph - N/A   Overcast
11:53 PM 28.9 °F 17.7 °F 16.0 °F 58% 29.96 in 10.0 mi SW 15.0 mph - N/A   Overcast